#timestamp,LO_Frequency,Hit,StdDev 
1526749215.0,286046998.5,N
1526749215.9,286046998.5,N
1526749235.8,286046999.4,N
1526749255.6,286046999.3,N
1526749275.4,286046996.7,N
1526749295.3,286046999.2,N
1526749315.1,286046997.2,N
1526749335.8,286046997.3,N
1526749355.7,286046997.0,N
1526749375.5,286046996.5,N
1526749395.4,286046997.3,N
1526749415.2,286046998.3,N
1526749435.0,286046998.3,N
1526749435.9,286046998.3,N
1526749455.8,286046998.4,N
1526749475.6,286047000.9,N
1526749495.4,286046999.9,N
1526749515.3,286047000.9,N
1526749535.1,286047002.1,N
1526749555.9,286047001.4,N
1526749575.7,286047001.5,N
1526749595.5,286047001.5,N
1526749615.4,286047000.1,N
1526749635.2,286047000.2,N
1526749655.0,286047001.0,N
1526749655.9,286047001.0,N
1526749675.8,286047000.2,N
1526749695.6,286047002.7,N
1526749715.5,286047000.3,N
1526749735.3,286047000.9,N
1526749755.1,286047000.7,N
1526749775.9,286046998.8,N
1526749795.7,286047000.5,N
1526749815.5,286047000.0,N
1526749835.4,286046998.5,N
1526749855.2,286046998.7,N
1526749875.1,286046999.0,N
1526749876.0,286046999.0,N
1526749895.8,286047002.2,N
1526749915.6,286047002.8,N
1526749935.5,286047000.0,N
1526749955.3,286047002.7,N
1526749975.1,286047002.1,N
1526749995.9,286047002.4,N
1526750015.7,286047002.7,N
1526750035.6,286047002.4,N
1526750055.4,286046999.8,N
1526750075.2,286047002.4,N
1526750095.1,286047000.0,N
1526750096.0,286047000.0,N
1526750115.8,286046998.5,N
1526750135.6,286047001.2,N
1526750155.5,286047000.6,N
1526750175.3,286047000.4,N
1526750195.2,286047000.6,N
1526750215.9,286047001.0,N
1526750235.7,286046998.7,N
1526750255.6,286046998.3,N
1526750275.4,286047000.6,N
1526750295.3,286047002.2,N
1526750315.1,286047002.4,N
1526750316.0,286047002.4,N
1526750335.8,286047002.7,N
1526750355.7,286047002.6,N
1526750375.5,286047000.4,N
1526750395.3,286047002.8,N
1526750415.2,286047000.9,N
1526750435.0,286046998.4,N
1526750435.9,286046998.4,N
1526750455.8,286047000.4,N
1526750475.6,286047000.2,N
1526750495.4,286047002.2,N
1526750515.3,286047000.9,N
1526750535.1,286047000.1,N
1526750555.9,286047002.6,N
1526750575.7,286047000.0,N
1526750595.5,286046999.8,N
1526750615.4,286047000.1,N
1526750635.2,286047000.0,N
1526750655.1,286047004.2,Y
1526750656.0,286047004.2,P
1526750675.8,286047003.9,N
1526750725.7,286047003.8,E
1526750735.6,286047002.0,N
1526750755.4,286046998.2,P
1526750775.3,286047000.5,N
1526750795.1,286046998.5,N
1526750815.8,286046999.9,N
1526750835.7,286047002.0,N
1526750855.5,286047001.6,N
1526750875.4,286047002.2,N
1526750895.2,286046999.9,N
1526750915.0,286046998.2,N
1526750915.9,286046998.2,N
1526750935.8,286046998.5,N
1526750955.6,286046998.5,N
1526750975.5,286047000.6,N
1526750995.3,286047002.6,N
1526751015.1,286047000.1,N
1526751035.9,286047002.3,N
1526751055.7,286047001.2,N
1526751075.5,286047000.2,N
1526751095.4,286047000.7,N
1526751115.2,286046996.7,N
1526751135.1,286046997.7,N
1526751136.0,286046997.7,N
1526751155.8,286046996.8,N
1526751175.6,286046998.7,N
1526751195.5,286047000.3,N
1526751215.3,286046998.2,N
1526751235.2,286047001.2,N
1526751255.9,286046998.9,N
1526751275.7,286047000.3,N
1526751295.6,286046998.4,N
1526751315.4,286046996.6,N
1526751335.2,286046997.3,N
1526751355.1,286046996.7,N
1526751356.0,286046996.7,N
1526751375.8,286046994.9,N
1526751395.7,286046997.8,N
1526751415.5,286046997.2,N
1526751435.3,286046996.8,N
1526751455.2,286046995.0,N
1526751475.0,286046995.0,N
1526751475.9,286046995.0,N
1526751495.7,286046997.0,N
1526751515.6,286046999.0,N
1526751535.4,286046999.5,N
1526751555.3,286046996.4,N
1526751575.1,286046996.0,N
1526751576.0,286046996.0,N
1526751595.8,286046997.6,N
1526751615.7,286046997.9,N
1526751635.5,286046997.7,N
1526751655.4,286046997.5,N
1526751675.2,286046994.9,Y
1526751695.0,286046999.0,P
1526751695.9,286046999.0,N
1526751715.8,286046999.6,N
1526751735.6,286046999.4,N
1526751755.4,286047001.1,N
1526751775.3,286047000.6,N
1526751795.1,286047001.1,N
1526751815.9,286046998.4,N
1526751835.7,286046998.6,N
1526751855.5,286046998.5,N
1526751875.4,286046998.6,N
1526751895.2,286046999.1,N
1526751915.1,286046997.3,N
1526751916.0,286046997.3,N
1526751935.8,286046997.8,N
1526751955.6,286046997.1,N
1526751975.5,286046998.7,N
1526751995.3,286047001.2,N
1526752015.1,286046998.1,N
1526752035.9,286046998.9,N
1526752055.7,286046996.6,N
1526752075.6,286046999.4,N
1526752095.4,286046999.1,N
1526752115.2,286046997.9,N
1526752135.1,286046997.7,N
1526752136.0,286046997.7,N
1526752155.8,286046997.1,N
1526752175.7,286046999.4,N
1526752195.5,286046998.4,N
1526752215.3,286046999.1,N
1526752235.2,286046999.3,N
1526752255.0,286046999.2,N
1526752255.9,286046999.2,N
1526752275.8,286046998.8,N
1526752295.6,286046998.4,N
1526752315.4,286046998.7,N
1526752335.3,286046998.8,N
1526752355.1,286046997.0,Y
1526752375.9,286046998.1,P
1526752395.7,286047000.9,P
1526752415.5,286046998.3,N
1526752435.4,286046998.1,N
1526752455.2,286047001.1,N
1526752475.0,286047001.2,N
1526752475.9,286047001.2,N
1526752495.8,286047000.1,N
1526752515.6,286046998.2,N
1526752535.5,286047000.4,N
1526752555.3,286047000.4,N
1526752575.1,286047000.8,N
1526752595.9,286047001.0,N
1526752615.7,286046996.6,N
1526752635.5,286046995.7,N
1526752655.4,286046999.4,N
1526752675.2,286046999.0,N
1526752695.1,286046999.9,N
1526752696.0,286046999.9,N
1526752715.8,286047000.2,N
1526752735.6,286046999.9,N
1526752755.5,286046998.1,N
1526752775.3,286046999.3,N
1526752795.1,286046999.2,N
